Location: *
(40.4270°N, 9.4940°E)
Time: 23:09:37
(UTC+01:00)

Daily predictions for brighter satellites

Satellite Brightness Start Highest point End
(mag) Time Altitude Azimuth Time Altitude Azimuth Time Altitude Azimuth
Cosmos 1908 3.3 17:45:15 10° N 17:49:05 58° E 17:52:55 10° SSE
MOS 1 4.3 17:45:46 10° SSE 17:51:23 79° ENE 17:57:05 10° NNW
IDEFIX/ARIANE 42P 2.7 17:46:22 10° SSE 17:51:34 87° WSW 17:56:51 10° NNW
Cosmos 1151 Rocket 4.1 17:49:04 10° NNE 17:52:30 23° ENE 17:55:56 10° SE
Cosmos 1076 Rocket 4.2 17:48:46 10° SSW 17:52:56 58° W 17:57:10 10° N
Cosmos 1500 Rocket 4.2 17:52:13 10° SSE 17:56:08 35° E 18:00:06 10° NNE
Cosmos 1674 2.6 17:54:20 10° S 17:58:07 77° E 18:01:58 10° N
Cosmos 841 Rocket 3.6 17:53:43 10° S 17:58:55 64° ESE 18:04:09 10° NNE
Cosmos 1484 Rocket 3.1 17:56:32 10° SE 18:00:14 43° ENE 18:04:01 10° N
Cosmos 371 Rocket 3.6 18:01:04 10° S 18:05:37 44° ESE 18:10:11 10° NNE
Meteor 2-2 Rocket 4.2 18:01:02 10° N 18:06:38 63° ENE 18:12:13 10° SSE
Cosmos 1937 Rocket 4.1 18:04:23 10° NNW 18:09:30 62° WSW 18:14:38 10° S
Cosmos 1844 Rocket 2.7 18:06:44 10° NNW 18:12:26 79° ENE 18:18:04 10° SSE
Cosmos 1300 3.3 18:10:57 10° NNE 18:14:28 33° ENE 18:17:58 10° SE
Hubble Space Telescope 3.5 18:14:21 10° SW 18:16:09 13° S 18:17:56 10° SSE
Cosmos 2333 4.3 18:10:50 10° SSW 18:16:27 79° WNW 18:22:05 10° NNE
Cosmos 1726 2.6 18:14:36 10° N 18:18:09 38° ENE 18:21:41 10° SSE
CZ-4 R/B 3.2 18:15:16 10° SSW 18:18:49 34° W 18:22:24 10° NNW
Lacrosse 5 rocket 2.7 18:16:12 10° NNW 18:18:59 19° NNE 18:20:33 16° ENE
SMAP 4.1 18:14:32 10° S 18:19:03 51° W 18:23:36 10° NNW
Lacrosse 5 3.9 18:19:57 10° WNW 18:23:29 19° NNW 18:27:01 10° NNE
Resurs 01 Rocket 3.2 18:24:11 16° ENE 18:24:11 16° ENE 18:26:45 10° NNE
Cosmos 44 Rocket 3.4 18:19:26 10° SSW 18:24:32 70° ESE 18:29:26 11° NE
Cosmos 2360 Rocket 4.0 18:20:57 10° WSW 18:25:42 27° NW 18:30:27 10° N
CZ-2C R/B 4.0 18:21:16 10° SSW 18:25:58 40° W 18:30:35 10° NNW
Cosmos 1980 3.9 18:20:49 10° S 18:26:17 53° ESE 18:31:48 10° NNE
Cosmos 836 Rocket 4.4 18:22:36 10° S 18:27:47 74° ESE 18:33:03 10° NNE
Cosmos 2084 3.1 18:24:53 10° SSW 18:28:47 68° ESE 18:31:39 17° NE
COSMO-SKYMED 1 2.5 18:29:09 10° NNE 18:33:31 88° ESE 18:37:51 10° SSW
YAOGAN 1 4.2 18:30:29 10° SSW 18:34:30 37° W 18:38:32 10° NNW
Atlas Centaur 2 4.2 18:34:30 10° WSW 18:37:12 14° SSW 18:39:39 10° S
DNEPR-1 R/B 4.5 18:30:48 10° SSW 18:37:54 84° ESE 18:43:15 13° NE
Cosmos 2333 Rocket 2.1 18:32:26 10° SSW 18:38:04 79° ESE 18:43:45 10° NNE
Cosmos 1328 3.7 18:34:17 10° S 18:38:14 90° W 18:42:12 10° N
Cosmos 2228 Rocket 4.1 18:34:15 10° NNW 18:38:30 48° W 18:42:45 10° SSW
FENGYUN 3A 4.5 18:35:01 10° ESE 18:39:26 27° ENE 18:43:52 10° N
Meteor 1-28 Rocket 3.0 18:35:56 10° NNE 18:39:39 71° E 18:43:20 10° S
OTV 4 1.3 18:40:11 10° W 18:43:02 43° S 18:44:21 25° SE
USA 215 3.2 18:38:08 10° ESE 18:44:41 75° NE 18:51:14 10° NW
Cosmos 1461 4.5 18:41:50 10° SSE 18:44:26 18° ESE 18:44:26 18° ESE
Aureole 2 Rocket 3.0 18:44:32 10° S 18:47:54 41° ESE 18:48:56 33° ENE
SJ-6B 3.0 18:46:28 10° SSE 18:50:23 51° ENE 18:54:24 10° N
Meteor 2-10 3.9 18:46:08 10° N 18:51:11 64° E 18:56:20 10° SSE
Cosmos 304 Rocket 4.3 18:47:52 10° S 18:52:17 38° ESE 18:53:50 30° ENE
METEOR-M 4.1 18:47:07 10° SSE 18:52:25 66° ENE 18:57:43 10° N
Cosmos 2219 Rocket 2.6 18:47:03 10° SW 18:52:38 62° WNW 18:58:14 10° NNE
Meteor 1-27 4.2 18:47:03 10° N 18:52:52 70° E 18:58:40 10° SSE
Cosmos 2058 2.7 18:51:28 10° S 18:55:34 79° E 18:59:41 10° N
Cosmos 372 Rocket 3.8 18:50:41 10° NNW 18:55:46 67° ENE 19:00:50 10° SSE
Cosmos 2278 Rocket 2.1 18:52:29 10° NNW 18:58:12 82° ENE 19:03:52 10° SSE
Cosmos 1703 3.2 19:02:59 10° S 19:06:49 58° E 19:07:15 54° ENE
Cosmos 540 Rocket 3.7 19:03:14 10° SSW 19:08:23 70° WNW 19:13:09 12° NNE
Cosmos 783 Rocket 4.5 19:06:11 10° SSW 19:11:30 87° WNW 19:15:34 18° NNE
Timation 1 Rocket 4.3 19:07:19 10° NNW 19:13:16 59° ENE 19:17:07 22° SE
Cosmos 1356 Rocket 4.2 19:16:01 10° S 19:18:31 35° SSE 19:18:31 35° SSE
Cosmos 2151 4.4 19:16:12 10° SSW 19:20:08 38° WNW 19:24:04 10° N
Cosmos 1340 Rocket 3.0 19:16:51 10° SSW 19:20:46 68° W 19:22:33 31° N
USA 229 DEB 4.5 19:16:31 10° S 19:21:43 30° ESE 19:21:43 30° ESE
USA 229 4.5 19:16:39 10° S 19:21:45 30° ESE 19:21:45 30° ESE
Cosmos 2237 Rocket 2.7 19:17:24 10° SW 19:22:56 58° WNW 19:27:23 16° NNE
SL-19 R/B 4.3 19:20:00 10° SSE 19:26:02 85° ENE 19:31:44 10° NNW
Cosmos 1805 Rocket 3.6 19:21:38 10° S 19:26:05 80° W 19:28:13 31° N
SL-16 R/B 2.1 19:21:42 10° S 19:27:17 67° ESE 19:28:29 52° NE
CENTAUR R/B 4.3 19:26:21 10° W 19:31:35 26° NW 19:36:51 12° NNE
Spot 2 Rocket 3.3 19:28:35 10° SSE 19:33:37 79° ENE 19:38:41 10° N
ALOS 2.1 19:30:04 10° SSE 19:34:44 88° ENE 19:39:26 10° NNW
Cosmos 1626 3.5 19:31:27 10° S 19:33:34 32° SSW 19:33:34 32° SSW
Cosmos 2297 3.5 19:31:12 10° NNW 19:36:56 80° ENE 19:38:37 48° SE
Cosmos 44 4.4 19:34:15 10° SW 19:39:15 44° NW 19:41:17 30° N
Cosmos 1538 Rocket 3.9 19:35:45 10° SSW 19:40:56 78° ESE 19:40:56 78° ESE
Sich 1 3.8 19:46:14 10° SSW 19:49:37 49° SW 19:49:37 49° SW
Cosmos 1633 Rocket 4.4 19:48:59 10° SSW 19:51:22 31° SSW 19:51:22 31° SSW
Lacrosse 5 rocket 3.2 19:54:39 10° NW 19:56:20 25° NW 19:56:20 25° NW
Resurs 01 Rocket 3.0 20:01:44 34° NW 20:01:44 34° NW 20:04:30 10° NNW
Lacrosse 5 4.4 20:06:31 10° NNW 20:07:09 11° NNW 20:07:09 11° NNW
